Location: Belfast
(54.5830°N, 5.9330°W)
Time: 12:58:34
(UTC+00:00)

ISS - Pass Details

Date: 11 December 2017
Orbit: 402 x 406 km, 51.6° (Epoch: 16 December)

Event Time Altitude Azimuth Distance (km) Brightness Sun altitude
Rises 17:06:40 0° 268° (W) 2,332 1.4 -9.1°
Reaches altitude 10° 17:08:47 10° 262° (W) 1,471 0.3 -9.3°
Maximum altitude 17:11:58 47° 188° (S) 547 -2.9 -9.8°
Drops below altitude 10° 17:15:09 10° 113° (ESE) 1,467 -1.4 -10.2°
Enters shadow 17:15:41 - 111° (ESE) 1,683 -1.1 -10.2°
